| time (UTC) | temp F | wind direction | speed knots | gust knots | rain 1hr in | rain 24hr in | rain mn in | humidity % | barometer mb |
| 20260504202816 | 86 | 32 | 7.0 | 9.6 | 0.00 | 0.00 | 0.00 | 100 | 1012.1 |
| 20260504202316 | 86 | 12 | 3.5 | 8.7 | 0.00 | 0.00 | 0.00 | 100 | 1012.0 |
| 20260504201816 | 86 | 8 | 1.7 | 10.4 | 0.00 | 0.00 | 0.00 | 100 | 1012.1 |
| 20260504201316 | 86 | 47 | 7.8 | 7.8 | 0.00 | 0.00 | 0.00 | 100 | 1012.1 |
| 20260504200816 | 86 | 36 | 5.2 | 10.4 | 0.00 | 0.00 | 0.00 | 100 | 1012.3 |
| 20260504200316 | 86 | 85 | 4.3 | 8.7 | 0.00 | 0.00 | 0.00 | 100 | 1012.3 |
| 20260504195816 | 86 | 28 | 3.5 | 9.6 | 0.00 | 0.00 | 0.00 | 100 | 1012.4 |
| 20260504195316 | 86 | 315 | 4.3 | 6.1 | 0.00 | 0.00 | 0.00 | 100 | 1012.4 |
| 20260504194816 | 86 | 84 | 4.3 | 10.4 | 0.00 | 0.00 | 0.00 | 100 | 1012.4 |
| 20260504194316 | 85 | 4 | 2.6 | 11.3 | 0.00 | 0.00 | 0.00 | 100 | 1012.5 |
| 20260504194131 | 85 | 30 | 8.7 | 13.9 | 0.00 | 0.00 | 0.00 | 100 | 1012.6 |
| 20260504193816 | 85 | 30 | 8.7 | 13.9 | 0.00 | 0.00 | 0.00 | 100 | 1012.6 |
| 20260504193316 | 86 | 5 | 6.1 | 11.3 | 0.00 | 0.00 | 0.00 | 100 | 1012.7 |
| 20260504192816 | 85 | 25 | 7.0 | 12.2 | 0.00 | 0.00 | 0.00 | 100 | 1012.7 |
| 20260504192316 | 85 | 14 | 3.5 | 11.3 | 0.00 | 0.00 | 0.00 | 100 | 1012.8 |
| 20260504191816 | 85 | 77 | 6.1 | 11.3 | 0.00 | 0.00 | 0.00 | 100 | 1012.8 |
| 20260504191316 | 85 | 60 | 2.6 | 7.8 | 0.00 | 0.00 | 0.00 | 100 | 1012.9 |
| 20260504190816 | 85 | 14 | 2.6 | 9.6 | 0.00 | 0.00 | 0.00 | 100 | 1013.0 |
| 20260504190316 | 86 | 77 | 7.0 | 8.7 | 0.00 | 0.00 | 0.00 | 100 | 1013.0 |
| 20260504185816 | 86 | 104 | 3.5 | 9.6 | 0.00 | 0.00 | 0.00 | 100 | 1013.0 |
| 20260504185316 | 86 | 67 | 7.0 | 10.4 | 0.00 | 0.00 | 0.00 | 100 | 1013.1 |
| 20260504184817 | 86 | 53 | 5.2 | 7.8 | 0.00 | 0.00 | 0.00 | 100 | 1013.3 |
| 20260504184316 | 86 | 28 | 3.5 | 6.1 | 0.00 | 0.00 | 0.00 | 100 | 1013.2 |
| 20260504183817 | 87 | 112 | 3.5 | 6.1 | 0.00 | 0.00 | 0.00 | 100 | 1013.4 |
| 20260504183317 | 87 | 37 | 3.5 | 5.2 | 0.00 | 0.00 | 0.00 | 100 | 1013.5 |
| 20260504182817 | 87 | 87 | 0.0 | 2.6 | 0.00 | 0.00 | 0.00 | 100 | 1013.5 |
| 20260504182317 | 86 | 317 | 0.0 | 7.0 | 0.00 | 0.00 | 0.00 | 100 | 1013.7 |
| 20260504181817 | 85 | 33 | 4.3 | 6.1 | 0.00 | 0.00 | 0.00 | 100 | 1013.7 |
| 20260504181317 | 86 | 23 | 3.5 | 7.0 | 0.00 | 0.00 | 0.00 | 100 | 1013.7 |
| 20260504180817 | 86 | 19 | 5.2 | 7.8 | 0.00 | 0.00 | 0.00 | 100 | 1013.9 |
| 20260504180317 | 87 | 61 | 0.0 | 5.2 | 0.00 | 0.00 | 0.00 | 100 | 1014.0 |
| 20260504175817 | 87 | 81 | 3.5 | 4.3 | 0.00 | 0.00 | 0.00 | 100 | 1014.1 |
| 20260504175317 | 87 | 240 | 0.0 | 3.5 | 0.00 | 0.00 | 0.00 | 100 | 1014.1 |
| 20260504174817 | 87 | 25 | 0.0 | 7.0 | 0.00 | 0.00 | 0.00 | 100 | 1014.2 |
| 20260504174317 | 87 | 105 | 3.5 | 7.8 | 0.00 | 0.00 | 0.00 | 100 | 1014.3 |
| 20260504173817 | 87 | 45 | 2.6 | 6.1 | 0.00 | 0.00 | 0.00 | 100 | 1014.2 |
| 20260504173317 | 87 | 164 | 0.0 | 4.3 | 0.00 | 0.00 | 0.00 | 100 | 1014.2 |
| 20260504172817 | 87 | 105 | 2.6 | 4.3 | 0.00 | 0.00 | 0.00 | 100 | 1014.3 |
| 20260504172317 | 87 | 327 | 0.9 | 6.1 | 0.00 | 0.00 | 0.00 | 100 | 1014.2 |
| 20260504171817 | 87 | 136 | 4.3 | 11.3 | 0.00 | 0.00 | 0.00 | 100 | 1014.5 |
| 20260504171317 | 86 | 68 | 0.0 | 7.0 | 0.00 | 0.00 | 0.00 | 100 | 1014.3 |
| 20260504170817 | 86 | 14 | 0.9 | 7.0 | 0.00 | 0.00 | 0.00 | 100 | 1014.2 |
| 20260504170317 | 87 | 295 | 3.5 | 7.8 | 0.00 | 0.00 | 0.00 | 100 | 1014.6 |
| 20260504160317 | 85 | 84 | 2.6 | 7.0 | 0.00 | 0.00 | 0.00 | 100 | 1015.3 |
| 20260504150819 | 84 | 35 | 0.9 | 8.7 | 0.00 | 0.00 | 0.00 | 100 | 1015.6 |
| 20260504150317 | 84 | 272 | 0.0 | 7.0 | 0.00 | 0.00 | 0.00 | 100 | 1015.5 |
| 20260504141317 | 82 | 177 | 5.2 | 8.7 | 0.00 | 0.00 | 0.00 | 100 | 1015.0 |
| 20260504140817 | 82 | 66 | 1.7 | 8.7 | 0.00 | 0.00 | 0.00 | 100 | 1015.4 |
| 20260504140317 | 82 | 229 | 0.0 | 9.6 | 0.00 | 0.00 | 0.00 | 100 | 1015.3 |
| 20260504130817 | 79 | 88 | 4.3 | 7.8 | 0.00 | 0.00 | 0.00 | 100 | 1015.0 |
| 20260504130317 | 79 | 87 | 4.3 | 7.8 | 0.00 | 0.00 | 0.00 | 100 | 1015.0 |
| 20260504120317 | 75 | 146 | 2.6 | 7.8 | 0.00 | 0.00 | 0.00 | 100 | 1014.7 |
| 20260504110317 | 74 | 170 | 0.0 | 4.3 | 0.00 | 0.00 | 0.00 | 100 | 1014.4 |
| 20260504100317 | 74 | 50 | 0.0 | 2.6 | 0.00 | 0.00 | 0.00 | 100 | 1014.0 |
| 20260504081817 | 75 | 112 | 1.7 | 5.2 | 0.00 | 0.00 | 0.00 | 100 | 1014.2 |
| 20260504081317 | 75 | 206 | 1.7 | 5.2 | 0.00 | 0.00 | 0.00 | 100 | 1014.2 |
| 20260504080817 | 75 | 71 | 0.0 | 3.5 | 0.00 | 0.00 | 0.00 | 100 | 1014.2 |
| 20260504080317 | 76 | 99 | 0.0 | 4.3 | 0.00 | 0.00 | 0.00 | 100 | 1014.1 |
| 20260504070318 | 77 | 88 | 0.9 | 1.7 | 0.00 | 0.00 | 0.00 | 100 | 1014.6 |
| 20260504050338 | 78 | 120 | 0.0 | 0.0 | 0.00 | 0.00 | 0.00 | 100 | 1015.2 |
| 20260504050318 | 78 | 120 | 0.0 | 0.0 | 0.00 | 0.00 | 0.00 | 100 | 1015.3 |
| 20260504045818 | 78 | 120 | 0.0 | 0.0 | 0.00 | 0.00 | 0.00 | 100 | 1015.2 |
| 20260504045318 | 78 | 120 | 0.0 | 0.0 | 0.00 | 0.00 | 0.00 | 100 | 1015.2 |
| 20260504044818 | 78 | 120 | 0.0 | 0.0 | 0.00 | 0.00 | 0.00 | 100 | 1015.3 |
| 20260504044318 | 78 | 120 | 0.0 | 0.0 | 0.00 | 0.00 | 0.00 | 100 | 1015.3 |
| 20260504044140 | 79 | 120 | 0.0 | 2.6 | 0.00 | 0.00 | 0.00 | 100 | 1014.8 |
| 20260504043818 | 79 | 120 | 0.0 | 2.6 | 0.00 | 0.00 | 0.00 | 100 | 1014.8 |
| 20260504043318 | 79 | 21 | 0.0 | 3.5 | 0.00 | 0.00 | 0.00 | 100 | 1015.1 |
| 20260504042818 | 79 | 157 | 0.0 | 3.5 | 0.00 | 0.00 | 0.00 | 100 | 1015.2 |
| 20260504042318 | 79 | 192 | 0.0 | 1.7 | 0.00 | 0.00 | 0.00 | 100 | 1015.4 |
| 20260504041818 | 79 | 187 | 0.0 | 1.7 | 0.00 | 0.00 | 0.00 | 100 | 1015.6 |
| 20260504041318 | 79 | 205 | 0.9 | 1.7 | 0.00 | 0.00 | 0.00 | 100 | 1015.6 |
| 20260504040818 | 79 | 151 | 0.0 | 0.9 | 0.00 | 0.00 | 0.00 | 100 | 1015.7 |
| 20260504040318 | 79 | 66 | 0.0 | 0.0 | 0.00 | 0.00 | 0.00 | 100 | 1015.8 |
| 20260504035818 | 79 | 66 | 0.0 | 0.0 | 0.00 | 0.00 | 0.00 | 100 | 1015.8 |
| 20260504035318 | 79 | 66 | 0.0 | 0.0 | 0.00 | 0.00 | 0.00 | 100 | 1015.8 |
| 20260504034818 | 79 | 66 | 0.0 | 0.0 | 0.00 | 0.00 | 0.00 | 100 | 1015.8 |
| 20260504034318 | 79 | 66 | 0.0 | 3.5 | 0.00 | 0.00 | 0.00 | 100 | 1015.8 |
| 20260504033818 | 79 | 77 | 0.0 | 0.9 | 0.00 | 0.00 | 0.00 | 100 | 1015.8 |
| 20260504033318 | 79 | 60 | 0.0 | 0.0 | 0.00 | 0.00 | 0.00 | 100 | 1015.7 |
| 20260504033141 | 79 | 60 | 0.0 | 0.0 | 0.00 | 0.00 | 0.00 | 100 | 1015.7 |
| 20260504032818 | 79 | 60 | 0.0 | 0.0 | 0.00 | 0.00 | 0.00 | 100 | 1015.7 |
| 20260504032743 | 79 | 60 | 0.0 | 0.0 | 0.00 | 0.00 | 0.00 | 100 | 1015.6 |
| 20260504032318 | 79 | 60 | 0.0 | 0.0 | 0.00 | 0.00 | 0.00 | 100 | 1015.7 |
| 20260504031818 | 79 | 60 | 0.0 | 0.0 | 0.00 | 0.00 | 0.00 | 100 | 1015.7 |
| 20260504031318 | 79 | 60 | 0.0 | 0.0 | 0.00 | 0.00 | 0.00 | 100 | 1015.7 |
| 20260504030818 | 79 | 60 | 0.0 | 0.0 | 0.00 | 0.00 | 0.00 | 100 | 1015.6 |
| 20260504030318 | 79 | 60 | 0.0 | 0.0 | 0.00 | 0.00 | 0.00 | 100 | 1015.6 |
| 20260504025818 | 80 | 60 | 0.0 | 0.0 | 0.00 | 0.00 | 0.00 | 100 | 1015.6 |
| 20260504025318 | 80 | 60 | 0.0 | 0.9 | 0.00 | 0.00 | 0.00 | 100 | 1015.5 |
| 20260504024818 | 80 | 165 | 0.9 | 1.7 | 0.00 | 0.00 | 0.00 | 100 | 1015.6 |
| 20260504024318 | 80 | 113 | 0.0 | 3.5 | 0.00 | 0.00 | 0.00 | 100 | 1015.4 |
| 20260504023818 | 80 | 116 | 0.0 | 1.7 | 0.00 | 0.00 | 0.00 | 100 | 1014.1 |
| 20260504023318 | 80 | 71 | 0.0 | 2.6 | 0.00 | 0.00 | 0.00 | 100 | 1015.4 |
| 20260504022818 | 80 | 94 | 0.0 | 3.5 | 0.00 | 0.00 | 0.00 | 100 | 1015.3 |
| 20260504022318 | 80 | 64 | 0.9 | 4.3 | 0.00 | 0.00 | 0.00 | 100 | 1015.2 |
| 20260504022229 | 80 | 54 | 0.0 | 3.5 | 0.00 | 0.00 | 0.00 | 100 | 1015.3 |
| 20260504021818 | 80 | 54 | 0.0 | 3.5 | 0.00 | 0.00 | 0.00 | 100 | 1015.3 |
| 20260504021318 | 80 | 33 | 0.9 | 2.6 | 0.00 | 0.00 | 0.00 | 100 | 1015.2 |
| 20260504020818 | 80 | 25 | 0.0 | 3.5 | 0.00 | 0.00 | 0.00 | 100 | 1015.1 |
| 20260504020318 | 80 | 92 | 1.7 | 5.2 | 0.00 | 0.00 | 0.00 | 100 | 1015.0 |
| 20260504015818 | 80 | 66 | 1.7 | 5.2 | 0.00 | 0.00 | 0.00 | 100 | 1015.0 |
| 20260504015318 | 80 | 108 | 1.7 | 2.6 | 0.00 | 0.00 | 0.00 | 100 | 1014.9 |
| 20260504014818 | 80 | 70 | 0.0 | 3.5 | 0.00 | 0.00 | 0.00 | 100 | 1014.8 |
| 20260504014318 | 80 | 63 | 3.5 | 4.3 | 0.00 | 0.00 | 0.00 | 100 | 1014.7 |
| 20260504013818 | 80 | 88 | 0.0 | 2.6 | 0.00 | 0.00 | 0.00 | 100 | 1014.6 |
| 20260504013318 | 80 | 77 | 0.0 | 4.3 | 0.00 | 0.00 | 0.00 | 100 | 1014.5 |
| 20260504013228 | 80 | 37 | 0.0 | 5.2 | 0.00 | 0.00 | 0.00 | 100 | 1014.4 |
| 20260504012917 | 80 | 37 | 0.0 | 5.2 | 0.00 | 0.00 | 0.00 | 100 | 1014.4 |
| 20260504012818 | 80 | 37 | 0.0 | 5.2 | 0.00 | 0.00 | 0.00 | 100 | 1014.4 |
| 20260504012444 | 80 | 78 | 3.5 | 3.5 | 0.00 | 0.00 | 0.00 | 100 | 1014.3 |
| 20260504012318 | 80 | 29 | 0.0 | 5.2 | 0.00 | 0.00 | 0.00 | 100 | 1014.4 |
| 20260504011818 | 80 | 78 | 3.5 | 3.5 | 0.00 | 0.00 | 0.00 | 100 | 1014.3 |
| 20260504011338 | 80 | 63 | 0.0 | 0.0 | 0.00 | 0.00 | 0.00 | 100 | 1011.5 |
| 20260504011318 | 80 | 49 | 0.0 | 3.5 | 0.00 | 0.00 | 0.00 | 100 | 1014.4 |
| 20260504010818 | 80 | 63 | 0.0 | 0.0 | 0.00 | 0.00 | 0.00 | 100 | 1011.5 |
| 20260504010339 | 80 | 63 | 0.0 | 1.7 | 0.00 | 0.00 | 0.00 | 100 | 1011.6 |
| 20260504010318 | 80 | 63 | 0.0 | 0.0 | 0.00 | 0.00 | 0.00 | 100 | 1014.1 |
| 20260504005818 | 80 | 63 | 0.0 | 1.7 | 0.00 | 0.00 | 0.00 | 100 | 1011.6 |
| 20260504005318 | 80 | 32 | 0.0 | 3.5 | 0.00 | 0.00 | 0.00 | 100 | 1011.7 |
| 20260504004818 | 80 | 92 | 0.9 | 5.2 | 0.00 | 0.00 | 0.00 | 100 | 1011.4 |
| 20260504004318 | 80 | 64 | 0.9 | 7.8 | 0.00 | 0.00 | 0.00 | 100 | 1011.9 |
| 20260504003818 | 80 | 16 | 3.5 | 7.0 | 0.00 | 0.00 | 0.00 | 100 | 1011.4 |
| 20260504003730 | 81 | 78 | 3.5 | 4.3 | 0.00 | 0.00 | 0.00 | 100 | 1012.0 |
| 20260504003318 | 81 | 25 | 2.6 | 6.1 | 0.00 | 0.00 | 0.00 | 100 | 1011.3 |
| 20260504002818 | 81 | 78 | 3.5 | 4.3 | 0.00 | 0.00 | 0.00 | 100 | 1012.0 |
| 20260504002318 | 81 | 42 | 0.9 | 5.2 | 0.00 | 0.00 | 0.00 | 100 | 1011.4 |
| 20260504001818 | 80 | 23 | 3.5 | 7.0 | 0.00 | 0.00 | 0.00 | 100 | 1011.2 |
| 20260504001318 | 81 | 8 | 0.9 | 4.3 | 0.00 | 0.00 | 0.00 | 100 | 1011.7 |
| 20260504000818 | 81 | 15 | 0.0 | 6.1 | 0.00 | 0.00 | 0.00 | 100 | 1011.7 |
| 20260504000318 | 81 | 97 | 0.0 | 6.1 | 0.00 | 0.00 | 0.00 | 100 | 1013.1 |
| 20260503235818 | 81 | 16 | 0.0 | 6.1 | 0.00 | 0.00 | 0.00 | 100 | 1013.5 |
| 20260503235318 | 81 | 91 | 4.3 | 6.1 | 0.00 | 0.00 | 0.00 | 100 | 1013.5 |
| 20260503234818 | 81 | 81 | 0.0 | 6.1 | 0.00 | 0.00 | 0.00 | 100 | 1013.5 |
| 20260503234318 | 82 | 50 | 0.0 | 7.8 | 0.00 | 0.00 | 0.00 | 100 | 1012.2 |
| 20260503233818 | 82 | 81 | 4.3 | 7.0 | 0.00 | 0.00 | 0.00 | 100 | 1013.5 |
| 20260503233318 | 82 | 18 | 4.3 | 6.1 | 0.00 | 0.00 | 0.00 | 100 | 1013.5 |
| 20260503232818 | 82 | 18 | 1.7 | 6.1 | 0.00 | 0.00 | 0.00 | 100 | 1013.5 |
| 20260503232318 | 82 | 5 | 1.7 | 7.0 | 0.00 | 0.00 | 0.00 | 100 | 1013.6 |
| 20260503231818 | 82 | 358 | 5.2 | 7.0 | 0.00 | 0.00 | 0.00 | 100 | 1013.7 |
| 20260503231318 | 82 | 14 | 1.7 | 7.0 | 0.00 | 0.00 | 0.00 | 100 | 1013.7 |
| 20260503230818 | 82 | 16 | 0.0 | 6.1 | 0.00 | 0.00 | 0.00 | 100 | 1013.7 |
| 20260503230318 | 82 | 336 | 1.7 | 7.0 | 0.00 | 0.00 | 0.00 | 100 | 1013.6 |
| 20260503225818 | 82 | 28 | 2.6 | 7.8 | 0.00 | 0.00 | 0.00 | 100 | 1013.5 |
| 20260503225358 | 82 | 355 | 3.5 | 7.8 | 0.00 | 0.00 | 0.00 | 100 | 1013.5 |
| 20260503225318 | 82 | 355 | 3.5 | 7.8 | 0.00 | 0.00 | 0.00 | 100 | 1013.5 |
| 20260503224818 | 83 | 14 | 0.0 | 7.8 | 0.00 | 0.00 | 0.00 | 100 | 1013.5 |
| 20260503224318 | 83 | 323 | 5.2 | 7.0 | 0.00 | 0.00 | 0.00 | 100 | 1013.4 |
| 20260503223818 | 82 | 15 | 3.5 | 8.7 | 0.00 | 0.00 | 0.00 | 100 | 1013.4 |
| 20260503223318 | 83 | 298 | 0.9 | 7.0 | 0.00 | 0.00 | 0.00 | 100 | 1013.5 |
| 20260503222818 | 83 | 36 | 0.9 | 7.0 | 0.00 | 0.00 | 0.00 | 100 | 1013.4 |
| 20260503222739 | 83 | 22 | 0.9 | 8.7 | 0.00 | 0.00 | 0.00 | 100 | 1013.5 |
| 20260503222320 | 83 | 63 | 0.9 | 7.0 | 0.00 | 0.00 | 0.00 | 100 | 1013.5 |
| 20260503221818 | 83 | 343 | 0.0 | 7.8 | 0.00 | 0.00 | 0.00 | 100 | 1013.5 |
| 20260503221319 | 83 | 22 | 0.9 | 8.7 | 0.00 | 0.00 | 0.00 | 100 | 1013.5 |
| 20260503221147 | 83 | 36 | 1.7 | 8.7 | 0.00 | 0.00 | 0.00 | 100 | 1013.5 |
| 20260503220818 | 83 | 36 | 1.7 | 8.7 | 0.00 | 0.00 | 0.00 | 100 | 1013.5 |
| 20260503220318 | 82 | 0 | 7.0 | 7.8 | 0.00 | 0.00 | 0.00 | 100 | 1013.5 |
| 20260503215818 | 82 | 75 | 2.6 | 7.0 | 0.00 | 0.00 | 0.00 | 100 | 1013.6 |
| 20260503215318 | 83 | 322 | 4.3 | 9.6 | 0.00 | 0.00 | 0.00 | 100 | 1013.6 |
| 20260503214818 | 83 | 66 | 1.7 | 8.7 | 0.00 | 0.00 | 0.00 | 100 | 1013.6 |
| 20260503214318 | 83 | 28 | 1.7 | 7.8 | 0.00 | 0.00 | 0.00 | 100 | 1013.6 |
| 20260503213818 | 83 | 9 | 3.5 | 8.7 | 0.00 | 0.00 | 0.00 | 100 | 1013.4 |
| 20260503213318 | 82 | 59 | 0.9 | 9.6 | 0.00 | 0.00 | 0.00 | 100 | 1013.4 |
| 20260503213036 | 82 | 26 | 1.7 | 7.8 | 0.00 | 0.00 | 0.00 | 100 | 1013.4 |
| 20260503212818 | 82 | 26 | 1.7 | 7.8 | 0.00 | 0.00 | 0.00 | 100 | 1013.4 |
| 20260503212613 | 82 | 80 | 4.3 | 9.6 | 0.00 | 0.00 | 0.00 | 100 | 1013.5 |
| 20260503212318 | 82 | 80 | 4.3 | 9.6 | 0.00 | 0.00 | 0.00 | 100 | 1013.5 |
| 20260503211818 | 83 | 45 | 6.1 | 9.6 | 0.00 | 0.00 | 0.00 | 100 | 1013.5 |
| 20260503211318 | 83 | 85 | 4.3 | 9.6 | 0.00 | 0.00 | 0.00 | 100 | 1013.5 |
| 20260503210818 | 83 | 104 | 0.9 | 8.7 | 0.00 | 0.00 | 0.00 | 100 | 1013.5 |
| 20260503210318 | 83 | 348 | 1.7 | 8.7 | 0.00 | 0.00 | 0.00 | 100 | 1013.5 |
| 20260503205818 | 82 | 16 | 0.9 | 8.7 | 0.00 | 0.00 | 0.00 | 100 | 1013.6 |
| 20260503205318 | 83 | 4 | 5.2 | 8.7 | 0.00 | 0.00 | 0.00 | 100 | 1013.5 |
| 20260503204818 | 83 | 327 | 8.7 | 8.7 | 0.00 | 0.00 | 0.00 | 100 | 1013.6 |
| 20260503204318 | 83 | 47 | 2.6 | 9.6 | 0.00 | 0.00 | 0.00 | 100 | 1013.6 |
| 20260503203818 | 83 | 19 | 3.5 | 9.6 | 0.00 | 0.00 | 0.00 | 100 | 1013.4 |
| 20260503203319 | 83 | 5 | 4.3 | 9.6 | 0.00 | 0.00 | 0.00 | 100 | 1013.5 |